| time (UTC) | temp F | wind direction | speed MPH | gust MPH | rain 1hr in | rain 24hr in | rain mn in | humidity % | barometer mb |
| 20260508234037 | 53 | 13 | 1.0 | 4.0 | 0.00 | 0.00 | 0.00 | 73 | 1017.4 |
| 20260508233537 | 53 | 19 | 1.0 | 4.0 | 0.00 | 0.00 | 0.00 | 73 | 1017.4 |
| 20260508233050 | 53 | 30 | 2.0 | 4.0 | 0.00 | 0.00 | 0.00 | 72 | 1017.5 |
| 20260508232538 | 54 | 38 | 1.0 | 4.0 | 0.00 | 0.00 | 0.00 | 72 | 1017.5 |
| 20260508232037 | 54 | 26 | 1.0 | 4.0 | 0.00 | 0.00 | 0.00 | 72 | 1017.5 |
| 20260508231549 | 54 | 32 | 1.0 | 4.0 | 0.00 | 0.00 | 0.00 | 72 | 1017.5 |
| 20260508231038 | 54 | 43 | 1.0 | 4.0 | 0.00 | 0.00 | 0.00 | 72 | 1017.6 |
| 20260508230537 | 54 | 14 | 1.0 | 4.0 | 0.00 | 0.00 | 0.00 | 71 | 1017.6 |
| 20260508230058 | 54 | 344 | 2.0 | 4.0 | 0.00 | 0.00 | 0.00 | 71 | 1017.5 |
| 20260508225538 | 54 | 32 | 2.0 | 4.0 | 0.00 | 0.00 | 0.00 | 70 | 1017.5 |
| 20260508225034 | 54 | 30 | 1.0 | 4.0 | 0.00 | 0.00 | 0.00 | 70 | 1017.6 |
| 20260508224547 | 54 | 28 | 1.0 | 4.0 | 0.00 | 0.00 | 0.00 | 70 | 1017.6 |
| 20260508224034 | 55 | 41 | 2.0 | 4.0 | 0.00 | 0.00 | 0.00 | 69 | 1017.5 |
| 20260508223535 | 55 | 51 | 2.0 | 4.0 | 0.00 | 0.00 | 0.00 | 70 | 1017.5 |
| 20260508223048 | 55 | 31 | 2.0 | 4.0 | 0.00 | 0.00 | 0.00 | 69 | 1017.5 |
| 20260508222534 | 55 | 34 | 1.0 | 3.0 | 0.00 | 0.00 | 0.00 | 69 | 1017.5 |
| 20260508222034 | 55 | 17 | 1.0 | 3.0 | 0.00 | 0.00 | 0.00 | 69 | 1017.4 |
| 20260508221549 | 55 | 17 | 1.0 | 3.0 | 0.00 | 0.00 | 0.00 | 69 | 1017.4 |
| 20260508221035 | 55 | 17 | 1.0 | 3.0 | 0.00 | 0.00 | 0.00 | 68 | 1017.4 |
| 20260508220534 | 55 | 17 | 1.0 | 3.0 | 0.00 | 0.00 | 0.00 | 68 | 1017.5 |
| 20260508220055 | 55 | 11 | 1.0 | 3.0 | 0.00 | 0.00 | 0.00 | 68 | 1017.4 |
| 20260508215535 | 56 | 9 | 1.0 | 3.0 | 0.00 | 0.00 | 0.00 | 67 | 1017.3 |
| 20260508215035 | 56 | 19 | 1.0 | 4.0 | 0.00 | 0.00 | 0.00 | 67 | 1017.4 |
| 20260508214541 | 56 | 19 | 1.0 | 4.0 | 0.00 | 0.00 | 0.00 | 67 | 1017.4 |
| 20260508214036 | 56 | 39 | 1.0 | 4.0 | 0.00 | 0.00 | 0.00 | 66 | 1017.3 |
| 20260508213534 | 56 | 35 | 1.0 | 3.0 | 0.00 | 0.00 | 0.00 | 66 | 1017.4 |
| 20260508213050 | 56 | 30 | 1.0 | 3.0 | 0.00 | 0.00 | 0.00 | 66 | 1017.3 |
| 20260508212535 | 56 | 34 | 1.0 | 5.0 | 0.00 | 0.00 | 0.00 | 65 | 1017.3 |
| 20260508212035 | 57 | 36 | 1.0 | 5.0 | 0.00 | 0.00 | 0.00 | 65 | 1017.3 |
| 20260508211545 | 57 | 38 | 2.0 | 5.0 | 0.00 | 0.00 | 0.00 | 64 | 1017.2 |
| 20260508211034 | 57 | 40 | 1.0 | 4.0 | 0.00 | 0.00 | 0.00 | 64 | 1017.2 |
| 20260508210538 | 57 | 14 | 1.0 | 4.0 | 0.00 | 0.00 | 0.00 | 63 | 1017.2 |
| 20260508210053 | 57 | 26 | 1.0 | 4.0 | 0.00 | 0.00 | 0.00 | 63 | 1017.1 |
| 20260508205534 | 58 | 33 | 1.0 | 3.0 | 0.00 | 0.00 | 0.00 | 62 | 1017.1 |
| 20260508205038 | 58 | 32 | 1.0 | 3.0 | 0.00 | 0.00 | 0.00 | 62 | 1017.1 |
| 20260508204548 | 58 | 33 | 0.0 | 3.0 | 0.00 | 0.00 | 0.00 | 61 | 1017.1 |
| 20260508204035 | 58 | 28 | 0.0 | 4.0 | 0.00 | 0.00 | 0.00 | 61 | 1017.0 |
| 20260508203535 | 58 | 36 | 1.0 | 5.0 | 0.00 | 0.00 | 0.00 | 60 | 1017.0 |
| 20260508203042 | 59 | 63 | 2.0 | 6.0 | 0.00 | 0.00 | 0.00 | 60 | 1017.0 |
| 20260508202535 | 59 | 61 | 3.0 | 6.0 | 0.00 | 0.00 | 0.00 | 59 | 1016.8 |
| 20260508202035 | 59 | 55 | 2.0 | 5.0 | 0.00 | 0.00 | 0.00 | 59 | 1016.9 |
| 20260508201548 | 59 | 59 | 0.0 | 4.0 | 0.00 | 0.00 | 0.00 | 59 | 1016.9 |
| 20260508201036 | 60 | 62 | 1.0 | 6.0 | 0.00 | 0.00 | 0.00 | 58 | 1016.8 |
| 20260508200533 | 60 | 0 | 1.0 | 6.0 | 0.00 | 0.00 | 0.00 | 58 | 1016.8 |
| 20260508200054 | 60 | 32 | 2.0 | 7.0 | 0.00 | 0.00 | 0.00 | 58 | 1016.7 |
| 20260508195535 | 60 | 79 | 2.0 | 7.0 | 0.00 | 0.00 | 0.00 | 57 | 1016.6 |
| 20260508195036 | 60 | 45 | 2.0 | 7.0 | 0.00 | 0.00 | 0.00 | 56 | 1016.6 |
| 20260508194550 | 60 | 70 | 3.0 | 7.0 | 0.00 | 0.00 | 0.00 | 56 | 1016.5 |
| 20260508194038 | 61 | 109 | 2.0 | 7.0 | 0.00 | 0.00 | 0.00 | 56 | 1016.5 |
| 20260508193535 | 61 | 65 | 2.0 | 7.0 | 0.00 | 0.00 | 0.00 | 56 | 1016.4 |
| 20260508193058 | 61 | 96 | 3.0 | 7.0 | 0.00 | 0.00 | 0.00 | 57 | 1016.4 |
| 20260508192536 | 61 | 87 | 2.0 | 6.0 | 0.00 | 0.00 | 0.00 | 58 | 1016.4 |
| 20260508192037 | 61 | 115 | 1.0 | 4.0 | 0.00 | 0.00 | 0.00 | 60 | 1016.3 |
| 20260508191554 | 61 | 115 | 2.0 | 8.0 | 0.00 | 0.00 | 0.00 | 59 | 1016.4 |
| 20260508191034 | 61 | 104 | 2.0 | 8.0 | 0.00 | 0.00 | 0.00 | 59 | 1016.4 |
| 20260508190533 | 61 | 97 | 3.0 | 8.0 | 0.00 | 0.00 | 0.00 | 59 | 1016.4 |
| 20260508190050 | 61 | 97 | 3.0 | 7.0 | 0.00 | 0.00 | 0.00 | 60 | 1016.4 |
| 20260508185533 | 61 | 82 | 2.0 | 8.0 | 0.00 | 0.00 | 0.00 | 60 | 1016.3 |
| 20260508185038 | 61 | 113 | 4.0 | 8.0 | 0.00 | 0.00 | 0.00 | 60 | 1016.3 |
| 20260508184550 | 61 | 101 | 3.0 | 7.0 | 0.00 | 0.00 | 0.00 | 60 | 1016.3 |
| 20260508184037 | 61 | 160 | 3.0 | 8.0 | 0.00 | 0.00 | 0.00 | 59 | 1016.3 |
| 20260508183537 | 61 | 91 | 2.0 | 10.0 | 0.00 | 0.00 | 0.00 | 59 | 1016.2 |
| 20260508183054 | 61 | 115 | 4.0 | 10.0 | 0.00 | 0.00 | 0.00 | 59 | 1016.2 |
| 20260508182538 | 61 | 165 | 5.0 | 10.0 | 0.00 | 0.00 | 0.00 | 58 | 1016.1 |
| 20260508182038 | 61 | 125 | 3.0 | 11.0 | 0.00 | 0.00 | 0.00 | 57 | 1016.1 |
| 20260508181554 | 62 | 148 | 5.0 | 11.0 | 0.00 | 0.00 | 0.00 | 57 | 1016.0 |
| 20260508181037 | 62 | 96 | 4.0 | 10.0 | 0.00 | 0.00 | 0.00 | 56 | 1016.0 |
| 20260508180540 | 62 | 111 | 4.0 | 12.0 | 0.00 | 0.00 | 0.00 | 56 | 1016.0 |
| 20260508180053 | 62 | 75 | 5.0 | 12.0 | 0.00 | 0.00 | 0.00 | 55 | 1015.9 |
| 20260508175537 | 62 | 149 | 5.0 | 11.0 | 0.00 | 0.00 | 0.00 | 54 | 1016.0 |
| 20260508175034 | 62 | 151 | 5.0 | 13.0 | 0.00 | 0.00 | 0.00 | 54 | 1015.8 |
| 20260508174542 | 62 | 83 | 5.0 | 13.0 | 0.00 | 0.00 | 0.00 | 54 | 1015.8 |
| 20260508174033 | 62 | 105 | 7.0 | 13.0 | 0.00 | 0.00 | 0.00 | 53 | 1015.7 |
| 20260508173533 | 62 | 113 | 5.0 | 11.0 | 0.00 | 0.00 | 0.00 | 53 | 1015.7 |
| 20260508173051 | 62 | 138 | 6.0 | 14.0 | 0.00 | 0.00 | 0.00 | 53 | 1015.7 |
| 20260508172533 | 63 | 90 | 7.0 | 14.0 | 0.00 | 0.00 | 0.00 | 52 | 1015.7 |
| 20260508172036 | 63 | 146 | 5.0 | 13.0 | 0.00 | 0.00 | 0.00 | 52 | 1015.7 |
| 20260508171553 | 63 | 120 | 3.0 | 13.0 | 0.00 | 0.00 | 0.00 | 54 | 1015.7 |
| 20260508171037 | 62 | 105 | 7.0 | 13.0 | 0.00 | 0.00 | 0.00 | 53 | 1015.8 |
| 20260508170538 | 63 | 130 | 6.0 | 14.0 | 0.00 | 0.00 | 0.00 | 54 | 1015.7 |
| 20260508170054 | 63 | 107 | 5.0 | 14.0 | 0.00 | 0.00 | 0.00 | 54 | 1015.7 |
| 20260508165535 | 63 | 112 | 7.0 | 13.0 | 0.00 | 0.00 | 0.00 | 54 | 1015.7 |
| 20260508165036 | 63 | 146 | 6.0 | 15.0 | 0.00 | 0.00 | 0.00 | 55 | 1015.8 |
| 20260508164549 | 63 | 158 | 6.0 | 15.0 | 0.00 | 0.00 | 0.00 | 55 | 1015.8 |
| 20260508164036 | 63 | 110 | 6.0 | 15.0 | 0.00 | 0.00 | 0.00 | 57 | 1015.8 |
| 20260508163535 | 63 | 134 | 7.0 | 15.0 | 0.00 | 0.00 | 0.00 | 58 | 1015.7 |
| 20260508163051 | 63 | 117 | 8.0 | 15.0 | 0.00 | 0.00 | 0.00 | 57 | 1015.7 |
| 20260508162533 | 63 | 117 | 5.0 | 15.0 | 0.00 | 0.00 | 0.00 | 56 | 1015.8 |
| 20260508162036 | 63 | 153 | 4.0 | 13.0 | 0.00 | 0.00 | 0.00 | 58 | 1015.8 |
| 20260508161550 | 63 | 178 | 7.0 | 13.0 | 0.00 | 0.00 | 0.00 | 59 | 1015.8 |
| 20260508161035 | 63 | 126 | 4.0 | 14.0 | 0.00 | 0.00 | 0.00 | 60 | 1015.8 |
| 20260508160532 | 63 | 136 | 6.0 | 14.0 | 0.00 | 0.00 | 0.00 | 59 | 1015.9 |
| 20260508160056 | 63 | 131 | 7.0 | 12.0 | 0.00 | 0.00 | 0.00 | 59 | 1015.9 |
| 20260508155535 | 63 | 140 | 6.0 | 15.0 | 0.00 | 0.00 | 0.00 | 58 | 1015.8 |
| 20260508155033 | 63 | 130 | 6.0 | 15.0 | 0.00 | 0.00 | 0.00 | 60 | 1015.7 |
| 20260508154547 | 63 | 140 | 7.0 | 13.0 | 0.00 | 0.00 | 0.00 | 57 | 1015.7 |
| 20260508154035 | 63 | 130 | 5.0 | 14.0 | 0.00 | 0.00 | 0.00 | 58 | 1015.8 |
| 20260508153536 | 63 | 111 | 7.0 | 14.0 | 0.00 | 0.00 | 0.00 | 57 | 1015.8 |
| 20260508153054 | 64 | 82 | 6.0 | 14.0 | 0.00 | 0.00 | 0.00 | 58 | 1015.8 |
| 20260508152535 | 64 | 178 | 7.0 | 14.0 | 0.00 | 0.00 | 0.00 | 58 | 1015.9 |
| 20260508152035 | 65 | 138 | 7.0 | 13.0 | 0.00 | 0.00 | 0.00 | 58 | 1015.9 |
| 20260508151558 | 65 | 132 | 3.0 | 12.0 | 0.00 | 0.00 | 0.00 | 60 | 1015.8 |
| 20260508151036 | 65 | 131 | 4.0 | 9.0 | 0.00 | 0.00 | 0.00 | 60 | 1015.9 |
| 20260508150535 | 65 | 132 | 3.0 | 10.0 | 0.00 | 0.00 | 0.00 | 61 | 1015.9 |
| 20260508150050 | 65 | 144 | 5.0 | 10.0 | 0.00 | 0.00 | 0.00 | 62 | 1015.8 |
| 20260508145539 | 65 | 152 | 4.0 | 12.0 | 0.00 | 0.00 | 0.00 | 62 | 1015.9 |
| 20260508145035 | 65 | 180 | 3.0 | 12.0 | 0.00 | 0.00 | 0.00 | 64 | 1016.0 |
| 20260508144552 | 65 | 130 | 4.0 | 12.0 | 0.00 | 0.00 | 0.00 | 63 | 1016.1 |
| 20260508144035 | 65 | 181 | 4.0 | 12.0 | 0.00 | 0.00 | 0.00 | 64 | 1016.1 |
| 20260508143535 | 65 | 172 | 5.0 | 12.0 | 0.00 | 0.00 | 0.00 | 63 | 1016.0 |
| 20260508143047 | 65 | 136 | 4.0 | 12.0 | 0.00 | 0.00 | 0.00 | 63 | 1016.1 |
| 20260508142536 | 65 | 146 | 5.0 | 12.0 | 0.00 | 0.00 | 0.00 | 62 | 1016.0 |
| 20260508142037 | 65 | 213 | 4.0 | 13.0 | 0.00 | 0.00 | 0.00 | 62 | 1016.0 |
| 20260508141550 | 65 | 138 | 4.0 | 13.0 | 0.00 | 0.00 | 0.00 | 61 | 1016.0 |
| 20260508141036 | 65 | 161 | 3.0 | 10.0 | 0.00 | 0.00 | 0.00 | 60 | 1015.9 |
| 20260508140538 | 65 | 144 | 5.0 | 10.0 | 0.00 | 0.00 | 0.00 | 60 | 1015.9 |
| 20260508140057 | 65 | 154 | 5.0 | 9.0 | 0.00 | 0.00 | 0.00 | 63 | 1016.1 |
| 20260508135555 | 65 | 202 | 3.0 | 11.0 | 0.00 | 0.00 | 0.00 | 62 | 1015.9 |
| 20260508135038 | 65 | 188 | 4.0 | 11.0 | 0.00 | 0.00 | 0.00 | 61 | 1015.9 |
| 20260508134542 | 65 | 169 | 2.0 | 8.0 | 0.00 | 0.00 | 0.00 | 61 | 1016.1 |
| 20260508134037 | 65 | 150 | 3.0 | 8.0 | 0.00 | 0.00 | 0.00 | 59 | 1016.0 |
| 20260508133540 | 65 | 181 | 3.0 | 10.0 | 0.00 | 0.00 | 0.00 | 59 | 1016.0 |
| 20260508133047 | 65 | 173 | 4.0 | 10.0 | 0.00 | 0.00 | 0.00 | 60 | 1016.1 |
| 20260508132537 | 65 | 132 | 4.0 | 9.0 | 0.00 | 0.00 | 0.00 | 60 | 1016.1 |
| 20260508132037 | 65 | 136 | 4.0 | 12.0 | 0.00 | 0.00 | 0.00 | 62 | 1015.9 |
| 20260508131554 | 65 | 184 | 4.0 | 12.0 | 0.00 | 0.00 | 0.00 | 62 | 1015.9 |
| 20260508131037 | 65 | 188 | 4.0 | 12.0 | 0.00 | 0.00 | 0.00 | 62 | 1015.9 |
| 20260508130537 | 65 | 172 | 4.0 | 12.0 | 0.00 | 0.00 | 0.00 | 60 | 1015.8 |
| 20260508130106 | 65 | 90 | 3.0 | 12.0 | 0.00 | 0.00 | 0.00 | 62 | 1015.9 |
| 20260508125538 | 64 | 178 | 4.0 | 12.0 | 0.00 | 0.00 | 0.00 | 61 | 1015.7 |
| 20260508125037 | 64 | 144 | 6.0 | 12.0 | 0.00 | 0.00 | 0.00 | 59 | 1015.7 |
| 20260508124542 | 65 | 137 | 4.0 | 11.0 | 0.00 | 0.00 | 0.00 | 61 | 1015.8 |
| 20260508124037 | 65 | 120 | 5.0 | 11.0 | 0.00 | 0.00 | 0.00 | 60 | 1015.8 |
| 20260508123539 | 65 | 176 | 4.0 | 10.0 | 0.00 | 0.00 | 0.00 | 60 | 1015.8 |
| 20260508123042 | 65 | 132 | 3.0 | 14.0 | 0.00 | 0.00 | 0.00 | 62 | 1015.7 |
| 20260508122538 | 65 | 186 | 5.0 | 14.0 | 0.00 | 0.00 | 0.00 | 59 | 1015.7 |
| 20260508122037 | 65 | 193 | 4.0 | 11.0 | 0.00 | 0.00 | 0.00 | 59 | 1015.7 |
| 20260508121556 | 64 | 180 | 4.0 | 9.0 | 0.00 | 0.00 | 0.00 | 59 | 1015.7 |
| 20260508121038 | 64 | 100 | 4.0 | 10.0 | 0.00 | 0.00 | 0.00 | 59 | 1015.7 |
| 20260508120537 | 64 | 196 | 4.0 | 13.0 | 0.00 | 0.00 | 0.00 | 60 | 1015.7 |
| 20260508120047 | 64 | 184 | 6.0 | 13.0 | 0.00 | 0.00 | 0.00 | 60 | 1015.7 |
| 20260508115537 | 64 | 178 | 7.0 | 13.0 | 0.00 | 0.00 | 0.00 | 60 | 1015.8 |
| 20260508115037 | 64 | 175 | 6.0 | 15.0 | 0.00 | 0.00 | 0.00 | 60 | 1015.7 |
| 20260508114548 | 63 | 150 | 5.0 | 15.0 | 0.00 | 0.00 | 0.00 | 62 | 1015.9 |
| 20260508114039 | 63 | 108 | 5.0 | 12.0 | 0.00 | 0.00 | 0.00 | 62 | 1015.7 |
| 20260508113538 | 63 | 80 | 6.0 | 12.0 | 0.00 | 0.00 | 0.00 | 62 | 1015.7 |
| 20260508113045 | 63 | 100 | 6.0 | 12.0 | 0.00 | 0.00 | 0.00 | 61 | 1015.8 |
| 20260508112537 | 63 | 84 | 6.0 | 12.0 | 0.00 | 0.00 | 0.00 | 61 | 1015.7 |
| 20260508112037 | 64 | 140 | 5.0 | 10.0 | 0.00 | 0.00 | 0.00 | 61 | 1015.8 |
| 20260508111554 | 64 | 132 | 4.0 | 11.0 | 0.00 | 0.00 | 0.00 | 62 | 1015.7 |
| 20260508111038 | 63 | 182 | 4.0 | 12.0 | 0.00 | 0.00 | 0.00 | 63 | 1015.7 |
| 20260508110537 | 63 | 142 | 4.0 | 12.0 | 0.00 | 0.00 | 0.00 | 64 | 1015.6 |
| 20260508110056 | 63 | 92 | 6.0 | 12.0 | 0.00 | 0.00 | 0.00 | 63 | 1015.6 |
| 20260508105539 | 64 | 155 | 6.0 | 10.0 | 0.00 | 0.00 | 0.00 | 63 | 1015.6 |
| 20260508105041 | 64 | 122 | 4.0 | 9.0 | 0.00 | 0.00 | 0.00 | 63 | 1015.7 |
| 20260508104615 | 64 | 119 | 5.0 | 10.0 | 0.00 | 0.00 | 0.00 | 63 | 1015.6 |
| 20260508104037 | 63 | 148 | 4.0 | 11.0 | 0.00 | 0.00 | 0.00 | 65 | 1015.7 |
| 20260508103537 | 63 | 103 | 4.0 | 12.0 | 0.00 | 0.00 | 0.00 | 66 | 1015.7 |
| 20260508103050 | 63 | 136 | 4.0 | 12.0 | 0.00 | 0.00 | 0.00 | 65 | 1015.7 |
| 20260508102538 | 62 | 159 | 4.0 | 12.0 | 0.00 | 0.00 | 0.00 | 66 | 1015.8 |
| 20260508102038 | 62 | 117 | 5.0 | 12.0 | 0.00 | 0.00 | 0.00 | 65 | 1015.8 |
| 20260508101551 | 62 | 156 | 5.0 | 13.0 | 0.00 | 0.00 | 0.00 | 67 | 1015.9 |
| 20260508101038 | 61 | 136 | 6.0 | 13.0 | 0.00 | 0.00 | 0.00 | 66 | 1015.8 |
| 20260508100537 | 61 | 105 | 6.0 | 13.0 | 0.00 | 0.00 | 0.00 | 66 | 1015.8 |
| 20260508100048 | 61 | 123 | 6.0 | 13.0 | 0.00 | 0.00 | 0.00 | 68 | 1015.8 |
| 20260508095538 | 61 | 86 | 6.0 | 13.0 | 0.00 | 0.00 | 0.00 | 68 | 1015.8 |
| 20260508095038 | 61 | 159 | 7.0 | 13.0 | 0.00 | 0.00 | 0.00 | 66 | 1015.9 |
| 20260508094548 | 61 | 94 | 7.0 | 13.0 | 0.00 | 0.00 | 0.00 | 67 | 1015.8 |
| 20260508094037 | 62 | 81 | 6.0 | 13.0 | 0.00 | 0.00 | 0.00 | 67 | 1015.7 |
| 20260508093539 | 61 | 113 | 6.0 | 12.0 | 0.00 | 0.00 | 0.00 | 69 | 1015.7 |
| 20260508093047 | 61 | 129 | 5.0 | 12.0 | 0.00 | 0.00 | 0.00 | 69 | 1015.8 |
| 20260508092537 | 61 | 116 | 7.0 | 12.0 | 0.00 | 0.00 | 0.00 | 68 | 1015.6 |
| 20260508092037 | 61 | 150 | 5.0 | 12.0 | 0.00 | 0.00 | 0.00 | 69 | 1015.7 |
| 20260508091551 | 61 | 144 | 4.0 | 12.0 | 0.00 | 0.00 | 0.00 | 71 | 1015.7 |
| 20260508091037 | 60 | 159 | 5.0 | 12.0 | 0.00 | 0.00 | 0.00 | 71 | 1015.8 |
| 20260508090536 | 60 | 126 | 6.0 | 13.0 | 0.00 | 0.00 | 0.00 | 71 | 1015.8 |
| 20260508090103 | 59 | 132 | 7.0 | 13.0 | 0.00 | 0.00 | 0.00 | 71 | 1015.8 |
| 20260508085537 | 60 | 140 | 5.0 | 12.0 | 0.00 | 0.00 | 0.00 | 72 | 1015.7 |
| 20260508085036 | 59 | 147 | 6.0 | 12.0 | 0.00 | 0.00 | 0.00 | 72 | 1015.7 |
| 20260508084543 | 59 | 136 | 6.0 | 12.0 | 0.00 | 0.00 | 0.00 | 72 | 1015.7 |
| 20260508084038 | 59 | 135 | 4.0 | 12.0 | 0.00 | 0.00 | 0.00 | 74 | 1015.7 |
| 20260508083537 | 59 | 88 | 6.0 | 15.0 | 0.00 | 0.00 | 0.00 | 73 | 1015.7 |
| 20260508083101 | 59 | 134 | 6.0 | 15.0 | 0.00 | 0.00 | 0.00 | 73 | 1015.6 |
| 20260508082539 | 59 | 117 | 5.0 | 14.0 | 0.00 | 0.00 | 0.00 | 73 | 1015.7 |
| 20260508082038 | 58 | 126 | 6.0 | 13.0 | 0.00 | 0.00 | 0.00 | 73 | 1015.6 |
| 20260508081557 | 58 | 146 | 5.0 | 15.0 | 0.00 | 0.00 | 0.00 | 75 | 1015.5 |
| 20260508081037 | 58 | 98 | 6.0 | 15.0 | 0.00 | 0.00 | 0.00 | 74 | 1015.4 |
| 20260508080537 | 59 | 152 | 7.0 | 15.0 | 0.00 | 0.00 | 0.00 | 72 | 1015.4 |
| 20260508075537 | 59 | 126 | 4.0 | 10.0 | 0.00 | 0.00 | 0.00 | 72 | 1015.4 |
| 20260508075038 | 59 | 157 | 2.0 | 11.0 | 0.00 | 0.00 | 0.00 | 74 | 1015.5 |
| 20260508074548 | 58 | 180 | 5.0 | 11.0 | 0.00 | 0.00 | 0.00 | 74 | 1015.4 |
| 20260508074039 | 59 | 111 | 4.0 | 9.0 | 0.00 | 0.00 | 0.00 | 74 | 1015.4 |
| 20260508073537 | 58 | 114 | 3.0 | 12.0 | 0.00 | 0.00 | 0.00 | 76 | 1015.3 |
| 20260508073050 | 58 | 130 | 4.0 | 12.0 | 0.00 | 0.00 | 0.00 | 77 | 1015.2 |
| 20260508072537 | 58 | 161 | 5.0 | 12.0 | 0.00 | 0.00 | 0.00 | 77 | 1015.3 |
| 20260508072037 | 57 | 129 | 6.0 | 12.0 | 0.00 | 0.00 | 0.00 | 78 | 1015.3 |
| 20260508071559 | 57 | 120 | 4.0 | 12.0 | 0.00 | 0.00 | 0.00 | 78 | 1015.2 |
| 20260508071037 | 57 | 123 | 5.0 | 11.0 | 0.00 | 0.00 | 0.00 | 79 | 1015.2 |
| 20260508070540 | 57 | 101 | 4.0 | 10.0 | 0.00 | 0.00 | 0.00 | 80 | 1015.2 |
| 20260508070139 | 56 | 105 | 3.0 | 10.0 | 0.00 | 0.00 | 0.00 | 82 | 1015.1 |
| 20260508065537 | 55 | 132 | 2.0 | 9.0 | 0.00 | 0.00 | 0.00 | 83 | 1015.1 |
| 20260508065041 | 55 | 149 | 3.0 | 9.0 | 0.00 | 0.00 | 0.00 | 83 | 1015.1 |
| 20260508064605 | 55 | 149 | 2.0 | 7.0 | 0.00 | 0.00 | 0.00 | 83 | 1015.1 |
| 20260508064037 | 54 | 118 | 2.0 | 9.0 | 0.00 | 0.00 | 0.00 | 84 | 1015.1 |
| 20260508063537 | 54 | 0 | 3.0 | 9.0 | 0.00 | 0.00 | 0.00 | 85 | 1015.0 |
| 20260508063050 | 53 | 121 | 1.0 | 6.0 | 0.00 | 0.00 | 0.00 | 86 | 1015.0 |
| 20260508062536 | 53 | 105 | 0.0 | 4.0 | 0.00 | 0.00 | 0.00 | 85 | 1015.1 |
| 20260508062037 | 53 | 0 | 0.0 | 4.0 | 0.00 | 0.00 | 0.00 | 86 | 1015.0 |
| 20260508061554 | 53 | 0 | 1.0 | 4.0 | 0.00 | 0.00 | 0.00 | 85 | 1015.0 |
| 20260508061037 | 53 | 0 | 0.0 | 2.0 | 0.00 | 0.00 | 0.00 | 85 | 1014.9 |
| 20260508060537 | 53 | 0 | 0.0 | 4.0 | 0.00 | 0.00 | 0.00 | 85 | 1014.8 |
| 20260508060045 | 53 | 59 | 1.0 | 5.0 | 0.00 | 0.00 | 0.00 | 85 | 1014.7 |
| 20260508055537 | 53 | 80 | 2.0 | 5.0 | 0.00 | 0.00 | 0.00 | 85 | 1014.7 |
| 20260508055037 | 52 | 55 | 2.0 | 5.0 | 0.00 | 0.00 | 0.00 | 86 | 1014.7 |
| 20260508054548 | 52 | 0 | 2.0 | 5.0 | 0.00 | 0.00 | 0.00 | 86 | 1014.6 |
| 20260508054038 | 52 | 42 | 2.0 | 5.0 | 0.00 | 0.00 | 0.00 | 86 | 1014.6 |
| 20260508053537 | 52 | 39 | 1.0 | 5.0 | 0.00 | 0.00 | 0.00 | 86 | 1014.7 |
| 20260508053101 | 52 | 19 | 1.0 | 5.0 | 0.00 | 0.00 | 0.00 | 86 | 1014.7 |
| 20260508052540 | 52 | 25 | 1.0 | 4.0 | 0.00 | 0.00 | 0.00 | 86 | 1014.7 |
| 20260508052037 | 51 | 22 | 1.0 | 3.0 | 0.00 | 0.00 | 0.00 | 85 | 1014.7 |
| 20260508051554 | 52 | 32 | 0.0 | 4.0 | 0.00 | 0.00 | 0.00 | 85 | 1014.7 |
| 20260508051037 | 52 | 32 | 0.0 | 4.0 | 0.00 | 0.00 | 0.00 | 85 | 1014.8 |
| 20260508050537 | 52 | 32 | 1.0 | 4.0 | 0.00 | 0.00 | 0.00 | 85 | 1014.7 |
| 20260508050058 | 52 | 0 | 0.0 | 3.0 | 0.00 | 0.00 | 0.00 | 85 | 1014.7 |
| 20260508045537 | 52 | 55 | 1.0 | 4.0 | 0.00 | 0.00 | 0.00 | 85 | 1014.7 |
| 20260508045037 | 52 | 0 | 1.0 | 4.0 | 0.00 | 0.00 | 0.00 | 85 | 1014.6 |
| 20260508044548 | 52 | 30 | 0.0 | 4.0 | 0.00 | 0.00 | 0.00 | 85 | 1014.6 |
| 20260508044037 | 52 | 19 | 1.0 | 4.0 | 0.00 | 0.00 | 0.00 | 85 | 1014.6 |
| 20260508043537 | 52 | 31 | 0.0 | 6.0 | 0.00 | 0.00 | 0.00 | 85 | 1014.7 |
| 20260508043101 | 52 | 16 | 0.0 | 6.0 | 0.00 | 0.00 | 0.00 | 85 | 1014.6 |
| 20260508042538 | 52 | 41 | 1.0 | 5.0 | 0.00 | 0.00 | 0.00 | 85 | 1014.6 |
| 20260508042037 | 52 | 0 | 2.0 | 8.0 | 0.00 | 0.00 | 0.00 | 85 | 1014.6 |
| 20260508041547 | 52 | 42 | 3.0 | 8.0 | 0.00 | 0.00 | 0.00 | 84 | 1014.6 |
| 20260508041037 | 52 | 42 | 1.0 | 6.0 | 0.00 | 0.00 | 0.00 | 84 | 1014.6 |
| 20260508040538 | 52 | 98 | 1.0 | 9.0 | 0.00 | 0.00 | 0.00 | 84 | 1014.6 |
| 20260508040049 | 52 | 68 | 1.0 | 9.0 | 0.00 | 0.00 | 0.00 | 84 | 1014.6 |
| 20260508035610 | 52 | 73 | 3.0 | 8.0 | 0.00 | 0.00 | 0.00 | 84 | 1014.6 |
| 20260508035037 | 52 | 59 | 2.0 | 4.0 | 0.00 | 0.00 | 0.00 | 84 | 1014.7 |
| 20260508034550 | 52 | 66 | 1.0 | 4.0 | 0.00 | 0.00 | 0.00 | 84 | 1014.6 |
| 20260508034037 | 52 | 74 | 1.0 | 4.0 | 0.00 | 0.00 | 0.00 | 84 | 1014.7 |
| 20260508033537 | 52 | 39 | 0.0 | 4.0 | 0.00 | 0.00 | 0.00 | 84 | 1014.7 |
| 20260508033050 | 52 | 39 | 1.0 | 4.0 | 0.00 | 0.00 | 0.00 | 84 | 1014.6 |
| 20260508032538 | 53 | 28 | 1.0 | 4.0 | 0.00 | 0.00 | 0.00 | 83 | 1014.6 |
| 20260508032037 | 53 | 39 | 1.0 | 4.0 | 0.00 | 0.00 | 0.00 | 83 | 1014.7 |
| 20260508031552 | 53 | 30 | 1.0 | 4.0 | 0.00 | 0.00 | 0.00 | 83 | 1014.7 |
| 20260508031037 | 53 | 29 | 1.0 | 3.0 | 0.00 | 0.00 | 0.00 | 83 | 1014.7 |
| 20260508030537 | 53 | 0 | 0.0 | 3.0 | 0.00 | 0.00 | 0.00 | 83 | 1014.8 |
| 20260508030056 | 53 | 55 | 0.0 | 3.0 | 0.00 | 0.00 | 0.00 | 83 | 1014.7 |
| 20260508025537 | 53 | 0 | 0.0 | 2.0 | 0.00 | 0.00 | 0.00 | 83 | 1014.9 |
| 20260508025037 | 53 | 0 | 0.0 | 2.0 | 0.00 | 0.00 | 0.00 | 83 | 1014.9 |
| 20260508024555 | 53 | 0 | 0.0 | 4.0 | 0.00 | 0.00 | 0.00 | 83 | 1014.9 |
| 20260508024037 | 53 | 55 | 1.0 | 4.0 | 0.00 | 0.00 | 0.00 | 83 | 1014.9 |
| 20260508023537 | 53 | 69 | 0.0 | 3.0 | 0.00 | 0.00 | 0.00 | 83 | 1015.0 |
| 20260508023047 | 53 | 0 | 0.0 | 6.0 | 0.00 | 0.00 | 0.00 | 83 | 1014.9 |
| 20260508022539 | 53 | 103 | 0.0 | 6.0 | 0.00 | 0.00 | 0.00 | 83 | 1015.0 |
| 20260508022038 | 53 | 96 | 1.0 | 6.0 | 0.00 | 0.00 | 0.00 | 83 | 1015.0 |
| 20260508021548 | 53 | 86 | 0.0 | 4.0 | 0.00 | 0.00 | 0.00 | 82 | 1014.9 |
| 20260508021040 | 53 | 84 | 2.0 | 4.0 | 0.00 | 0.00 | 0.00 | 82 | 1014.9 |
| 20260508020537 | 53 | 98 | 2.0 | 7.0 | 0.00 | 0.00 | 0.00 | 81 | 1014.9 |
| 20260508020049 | 53 | 97 | 1.0 | 7.0 | 0.00 | 0.00 | 0.00 | 81 | 1014.9 |
| 20260508015537 | 53 | 105 | 3.0 | 7.0 | 0.00 | 0.00 | 0.00 | 81 | 1015.0 |
| 20260508015037 | 53 | 0 | 3.0 | 7.0 | 0.00 | 0.00 | 0.00 | 80 | 1015.0 |
| 20260508014548 | 53 | 107 | 1.0 | 4.0 | 0.00 | 0.00 | 0.00 | 80 | 1015.0 |
| 20260508014038 | 53 | 103 | 2.0 | 4.0 | 0.00 | 0.00 | 0.00 | 80 | 1015.0 |
| 20260508013537 | 53 | 0 | 2.0 | 6.0 | 0.00 | 0.00 | 0.00 | 79 | 1015.1 |
| 20260508013046 | 53 | 101 | 1.0 | 6.0 | 0.00 | 0.00 | 0.00 | 79 | 1015.1 |
| 20260508012537 | 53 | 84 | 3.0 | 6.0 | 0.00 | 0.00 | 0.00 | 79 | 1015.1 |
| 20260508012038 | 53 | 108 | 2.0 | 4.0 | 0.00 | 0.00 | 0.00 | 78 | 1015.3 |
| 20260508011550 | 53 | 87 | 1.0 | 4.0 | 0.00 | 0.00 | 0.00 | 78 | 1015.2 |
| 20260508011037 | 53 | 115 | 1.0 | 6.0 | 0.00 | 0.00 | 0.00 | 78 | 1015.3 |
| 20260508010537 | 53 | 103 | 2.0 | 7.0 | 0.00 | 0.00 | 0.00 | 78 | 1015.3 |
| 20260508010045 | 53 | 111 | 2.0 | 7.0 | 0.00 | 0.00 | 0.00 | 78 | 1015.3 |
| 20260508005537 | 53 | 121 | 2.0 | 6.0 | 0.00 | 0.00 | 0.00 | 78 | 1015.2 |
| 20260508005041 | 53 | 109 | 2.0 | 4.0 | 0.00 | 0.00 | 0.00 | 77 | 1015.3 |
| 20260508004541 | 53 | 130 | 1.0 | 7.0 | 0.00 | 0.00 | 0.00 | 77 | 1015.3 |
| 20260508004038 | 53 | 97 | 2.0 | 7.0 | 0.00 | 0.00 | 0.00 | 76 | 1015.4 |
| 20260508003537 | 53 | 121 | 3.0 | 7.0 | 0.00 | 0.00 | 0.00 | 76 | 1015.4 |
| 20260508003045 | 53 | 141 | 3.0 | 6.0 | 0.00 | 0.00 | 0.00 | 76 | 1015.5 |
| 20260508002538 | 53 | 108 | 1.0 | 7.0 | 0.00 | 0.00 | 0.00 | 75 | 1015.4 |
| 20260508002037 | 54 | 101 | 3.0 | 7.0 | 0.00 | 0.00 | 0.00 | 75 | 1015.4 |
| 20260508001548 | 54 | 112 | 3.0 | 6.0 | 0.00 | 0.00 | 0.00 | 75 | 1015.4 |
| 20260508001037 | 54 | 141 | 2.0 | 7.0 | 0.00 | 0.00 | 0.00 | 75 | 1015.5 |
| 20260508000538 | 54 | 102 | 3.0 | 7.0 | 0.00 | 0.00 | 0.00 | 75 | 1015.4 |
| 20260508000046 | 54 | 112 | 2.0 | 7.0 | 0.00 | 0.00 | 0.00 | 74 | 1015.4 |
| 20260507235537 | 54 | 107 | 3.0 | 8.0 | 0.00 | 0.00 | 0.00 | 74 | 1015.4 |
| 20260507235037 | 54 | 159 | 2.0 | 8.0 | 0.00 | 0.00 | 0.00 | 74 | 1015.4 |
| 20260507234547 | 54 | 113 | 4.0 | 8.0 | 0.00 | 0.00 | 0.00 | 74 | 1015.4 |